Flag for Bangladesh Weather past 2 weeks in Jessore, Bangladesh

Now
72 °F

Mostly cloudy.


Feels Like: 75 °F
Forecast: 84 / 102 °F
Wind: 8 mph from South

Location: Kunming Airport

Current Time: May 30, 2015 at 11:08:55 PM

Latest Report: May 30, 2015 at 10:00 PM


Visibility: N/A

Pressure: 30.09 "Hg

Humidity: 65%

Dew point: 59 °F

Location of JessoreLocation

Historic Weather in Jessore — Graph

°F

Jessore temperature yesterday

Maximum temperature yesterday: 84 °F (at 4:00 PM)
Minimum temperature yesterday: 63 °F (at 1:00 AM)
Average temperature yesterday: 73 °F

Past Weeks' High & Low Weather Summary

 TemperatureHumidityPressure
High84 °F (May 18, 12:00 PM)100% (May 22, 11:00 PM)30.21 "Hg (May 22, 11:00 PM)
Low54 °F (May 23, 4:00 AM)28% (May 18, 3:00 PM)29.86 "Hg (May 28, 3:00 PM)
Average69 °F64%30.03 "Hg
* Reported May 15 10:00 PM — May 30 10:00 PM, Jessore, Weather by CustomWeather, © 2015

Note: Actual official high and low records may vary slightly from our data, if they occured in-between our weather recording intervals... More about our weather records

Advertising

Jessore weather history for previous 24 hours

 ConditionsComfort  
Time TempWeatherWind HumidityBarometerVisibility
10:00 PM
Sat, May 30
72 °FMostly cloudy.8 mph65%30.09 "HgN/A
9:00 PM68 °FThunderstorms. Partly cloudy.3 mph83%30.09 "HgN/A
8:00 PM70 °FSprinkles. Partly cloudy.8 mph73%30.07 "HgN/A
7:00 PM75 °FPassing clouds.10 mph50%30.04 "HgN/A
6:00 PM75 °FPassing clouds.8 mph50%30.01 "HgN/A
5:00 PM79 °FScattered clouds.10 mph45%30.01 "HgN/A
4:00 PM81 °FScattered clouds.8 mph42%29.98 "HgN/A
3:00 PM82 °FBroken clouds.10 mph35%30.01 "HgN/A
2:00 PM82 °FBroken clouds.10 mph37%30.04 "HgN/A
1:00 PM81 °FBroken clouds.10 mph39%30.07 "HgN/A
12:00 PM79 °FBroken clouds.10 mph42%30.09 "HgN/A
11:00 AM79 °FBroken clouds.6 mph42%30.09 "HgN/A
10:00 AM75 °FScattered clouds.8 mph47%30.12 "HgN/A
9:00 AM75 °FScattered clouds.8 mph54%30.15 "HgN/A
8:00 AM72 °FScattered clouds.6 mph61%30.15 "HgN/A
7:00 AM68 °FPassing clouds.8 mph69%30.12 "HgN/A
6:00 AM66 °FPassing clouds.8 mph73%30.12 "HgN/A
5:00 AM64 °FScattered clouds.8 mph73%30.09 "HgN/A
4:00 AM64 °FPassing clouds.8 mph73%30.09 "HgN/A
3:00 AM66 °FClear.8 mph64%30.09 "Hg10 mi
2:00 AM66 °FClear.8 mph64%30.07 "Hg10 mi
1:00 AM66 °FClear.8 mph64%30.07 "Hg10 mi
12:00 AM66 °FClear.8 mph60%30.07 "Hg10 mi
11:00 PM
Fri, May 29
68 °FClear.13 mph56%30.07 "Hg10 mi
Weather by CustomWeather, © 2015

See weather overviewHow to use our weather pages